Regional Weather Roundup
Issued by NWS

Home | Current Version | Previous Version | Graphics & Text | Print | Product List | Glossary On
Versions: 1 2 3 4 5 6 7 8 9 10 11 12 13 14 15 16 17 18 19 20 21 22 23 24 25 26 27 28 29 30 31 32 33 34 35 36 37 38 39 40 41 42 43 44 45 46 47 48 49 50
000
ASUS43 KMKX 292335
RWRWI

WISCONSIN REGIONAL WEATHER ROUNDUP
NATIONAL WEATHER SERVICE MILWAUKEE/SULLIVAN WI
700 PM CDT FRI MAY 29 2015

NOTE: "FAIR" INDICATES FEW OR NO CLOUDS BELOW 12,000 FEET WITH NO
SIGNIFICANT WEATHER AND/OR OBSTRUCTIONS TO VISIBILITY.

WIZ001-002-006>008-014>016-023>028-300100-
NORTHWEST WISCONSIN

CITY           SKY/WX    TMP DP  RH WIND       PRES   REMARKS
SUPERIOR ARPT  CLOUDY    57  51  82 N15G21    29.99R
ASHLAND        LGT RAIN  59  57  93 N8        29.96R
HAYWARD        LGT RAIN  61  57  87 N9        29.94R
SIREN          DRIZZLE   61  58  92 N12G17    29.95S
CUMBERLAND     RAIN      61  59  94 N9        29.93R
RICE LAKE      CLOUDY    64  61  89 CALM      29.93S
CHETEK         RAIN      63  62  97 N9        29.91S
LADYSMITH      RAIN      64  63  94 CALM      29.94R
EAU CLAIRE     LGT RAIN  67  64  90 VRB7      29.87F
MENOMONIE      LGT RAIN  66  65  96 N10       29.88F
NEW RICHMOND   DRIZZLE   64  63  97 N10       29.91F
OSCEOLA        LGT RAIN  62  62 100 N13G18    29.95R
$$

WIZ003>005-009-010-017-018-300100-
NORTH CENTRAL WISCONSIN

CITY           SKY/WX    TMP DP  RH WIND       PRES   REMARKS
MANITOWISH WTR RAIN      60  60 100 N6        29.92R
ARBOR VITAE    HVY RAIN  62  60  93 N8        29.92R
WOODRUFF       HVY RAIN  62  60  93 N8        29.92R
RHINELANDER    LGT RAIN  68  62  81 W5        29.90S
EAGLE RIVER    LGT RAIN  66  61  81 W5        29.89S
LAND O LAKES   HVY RAIN  62  58  88 NW10      29.92R
PHILLIPS       RAIN      62  61  99 NW3       29.91S
TOMAHAWK       LGT RAIN  67  62  84 W5        29.90S
MEDFORD        DRIZZLE   66  64  91 W7        29.90S
MERRILL        LGT RAIN  67  66  94 W3        29.90R
$$

WIZ029-030-035-036-043>047-300100-
CENTRAL WISCONSIN

CITY           SKY/WX    TMP DP  RH WIND       PRES   REMARKS
WAUSAU         LGT RAIN  66  64  93 W3        29.87S
MOSINEE        CLOUDY    66  64  94 NW9       29.89R
MARSHFIELD     LGT RAIN  67  63  87 W6        29.89S
STEVENS POINT  PTSUNNY   73  62  70 W6        29.87R
WAUPACA        PTSUNNY   78  66  67 SE7       29.84F HX  80
WAUTOMA        MOSUNNY   79  67  66 S8        29.85F HX  81
WISC RAPIDS    HVY RAIN  65  61  87 NW13      29.91R FOG
CAMP DOUGLAS   CLOUDY    77  68  73 N13       29.86R
$$

WIZ011>013-019>022-031-037>040-048>050-300100-
NORTHEAST WISCONSIN

CITY           SKY/WX    TMP DP  RH WIND       PRES   REMARKS
ANTIGO         RAIN      64  64  98 W6        29.88S
SHAWANO        PTSUNNY   80  64  58 S7        29.84F HX  81
OCONTO         CLOUDY    73  67  81 S10       29.84F
STURGEON BAY   PTSUNNY   72  63  73 S10       29.88F
GREEN BAY      PTSUNNY   76  67  73 S10       29.86F
MANITOWOC      CLOUDY    63  61  93 E6        29.89F FOG
APPLETON       PTSUNNY   75  64  69 S13       29.86F
CLINTONVILLE   RAIN      75  64  69 S5        29.84S
OSHKOSH        MOSUNNY   77  66  68 S8        29.86F
$$

WIZ032>034-041-042-053>061-300100-
SOUTHWEST WISCONSIN

CITY           SKY/WX    TMP DP  RH WIND       PRES   REMARKS
LA CROSSE      CLOUDY    69  64  84 N12       29.87R
SPARTA         RAIN      70  64  81 NE3       29.88S
VIROQUA        CLOUDY    75  63  66 SW7       29.88S
BOSCOBEL       CLOUDY    80  64  58 SW6       29.85F HX  82
PRAIRIE DU CHI CLOUDY    78  60  53 SW9       29.85F HX  80
PLATTEVILLE    CLOUDY    75  68  79 S8        29.88F
$$

WIZ056-057-062-063-064-067-068-300100-
SOUTH CENTRAL WISCONSIN

CITY           SKY/WX    TMP DP  RH WIND       PRES   REMARKS
REEDSBURG      MOSUNNY   77  65  66 SW7       29.85F
BARABOO/DELLS  MOSUNNY   76  65  67 SW6       29.87S
LONE ROCK      PTSUNNY   79  66  64 SW7       29.86F HX  81
MINERAL POINT  PTSUNNY   77  68  73 S8        29.89F
MADISON        LGT RAIN  76  66  71 CALM      29.87F
MIDDLETON      PTSUNNY   75  67  76 SW5       29.88F
WATERTOWN      MOSUNNY  N/A N/A N/A SW8       29.87F
MONROE         CLOUDY    70  64  83 SW5       29.90S
JANESVILLE     NOT AVBL
$$

WIZ051-052-058>065-066-070>072-300100-
SOUTHEAST WISCONSIN

CITY           SKY/WX    TMP DP  RH WIND       PRES   REMARKS
MILWAUKEE      LGT RAIN  73  68  84 SW6       29.88F
WAUKESHA       MOSUNNY   72  66  83 SW8       29.90F
MILWAUKEE/TIMM MOSUNNY   70  66  88 SW3       29.89F
RACINE         CLOUDY    68  64  87 S7        29.91S
BURLINGTON     PTSUNNY   73  65  78 W9G17     29.89F
KENOSHA        PTSUNNY   77  69  76 W6        29.89F
FOND DU LAC    PTSUNNY   76  65  68 SW9       29.86F
SHEBOYGAN      CLOUDY    69  66  90 S6        29.88F
WEST BEND      CLOUDY    70  66  88 SE3       29.88F
JUNEAU         HVY RAIN  67  63  88 W3G17     29.89S
$$

LSZ147-162-300100-
LAKE SUPERIOR

STATION/POSITION TIME  TEMP    WIND        PRES    WAVE
                       AIR SEA DIR/SP/G            HT/PER
                 (UTC) (F)     (DEG/KT/KT) (MB)    (FT/S)
W MID LAKE BUOY  2250   44 37  330/  8/ 10   N/A     1
DEVILS ISLAND    2300   58      50/ 10/ 11   N/A
PORT WING        2240   53     290/  1/  5   N/A
SAXON HARBOR     2200   57        CALM       N/A
$$

LMZ867-665-643>646-300100-
LAKE MICHIGAN

STATION/POSITION TIME  TEMP    WIND        PRES    WAVE
                       AIR SEA DIR/SP/G            HT/PER
                 (UTC) (F)     (DEG/KT/KT) (MB)    (FT/S)
CHAMBERS ISLAND  2200   71     160/  5/ 12   N/A
N MID LAKE BUOY  2250   43 37  200/  8/ 10   N/A     1/ 3
NORTHPORT PIER   2300   59     140/  9/ 15   N/A
SISTER BAY       2218   72     190/ 16/ 19   N/A
ALGOMA LAKESHORE 2238          210/ 13/ 14   N/A
KEWAUNEE LAKESHO 2300   53     180/ 15/ 16   N/A
SHEBOYGAN LAKESH 2300   59     170/ 16/ 17   N/A
PORT WASHINGTON  2240   58      CALM  /  1   N/A
ATWATER BUOY     2300   60     180/  6/  8   N/A
MILWAUKEE LAKESH 2300   66     210/  9/ 12   N/A
S MID LAKE BUOY  2250   47 38  130/ 10/ 10   N/A     0
KENOSHA   LAKESH 2300   62     170/  8/ 11   N/A
$$

TC  - TEMPERATURE IN CELSIUS
VSB - VISIBILITY IN STATUTE MILES
WCI - WIND CHILL INDEX
HX  - HEAT INDEX




USA.gov is the U.S. government's official web portal to all federal, state and local government web resources and services.